Location: Hohe Wand Kleine Kanzel
(47.8330°N, 16.0170°E)
Time: 15:26:58
(UTC+02:00)

SEEDS - Visible Passes

Search period start: 24 September 2021 00:00
Search period end: 04 October 2021 00:00
Orbit: 584 x 602 km, 97.6° (Epoch: 23 September)

Date Brightness Start Highest point End Pass type
(mag) Time Alt. Az. Time Alt. Az. Time Alt. Az.
24 Sep ? 05:21:25 10° NNE 05:25:34 51° E 05:29:41 10° S visible
25 Sep ? 05:30:21 10° NNE 05:34:34 64° ESE 05:38:46 10° S visible
26 Sep ? 05:39:18 10° NNE 05:43:33 80° ESE 05:47:47 10° S visible
27 Sep ? 04:15:15 10° ENE 04:16:21 11° E 04:17:27 10° ESE visible
27 Sep ? 05:48:17 10° NNE 05:52:32 83° WNW 05:56:46 10° SSW visible
28 Sep ? 04:23:18 10° ENE 04:25:26 14° E 04:27:34 10° ESE visible
28 Sep ? 05:57:17 10° N 06:01:29 67° WNW 06:05:41 10° SSW visible
29 Sep ? 04:31:46 10° NE 04:34:31 17° E 04:37:15 10° SE visible
29 Sep ? 06:06:18 10° N 06:10:27 53° WNW 06:14:34 10° SSW visible
30 Sep ? 04:40:24 10° NE 04:43:35 20° E 04:46:45 10° SE visible
30 Sep ? 06:15:21 10° N 06:19:23 43° WNW 06:23:23 10° SW visible
01 Oct ? 04:49:06 10° NE 04:52:37 25° E 04:56:07 10° SSE visible
02 Oct ? 04:57:53 10° NNE 05:01:40 30° E 05:05:24 10° SSE visible
03 Oct ? 05:06:43 10° NNE 05:10:40 37° E 05:14:37 10° SSE visible
